Regional Weather Roundup
Issued by NWS

Home | Current Version | Previous Version | Text Only | Print | Product List | Glossary Off
Versions: 1 2 3 4 5 6 7 8 9 10 11 12 13 14 15 16 17 18 19 20 21 22 23 24 25 26 27 28 29 30 31 32 33 34 35 36 37 38 39 40 41 42 43 44 45 46 47 48 49 50

000
ASUS43 KOAX 022010
RWRNE

WEATHER ROUNDUP FOR NEBRASKA
NATIONAL WEATHER SERVICE OMAHA NE
300 PM CDT SUN AUG 02 2015

NOTES: SATELLITE DATA IS BEING USED TO AUGMENT CLOUD COVER ABOVE
       12000 FEET.
       "FAIR" INDICATES FEW OR NO CLOUDS BELOW 12,000 FEET WITH NO
       SIGNIFICANT WEATHER AND/OR OBSTRUCTIONS TO VISIBILITY.

  * THESE STATIONS DO NOT REPORT WEATHER SUCH AS RAIN...SNOW OR FOG.

NEZ001>004-019>022-054>056-022100-
NEBRASKA PANHANDLE

CITY           SKY/WX    TMP DP  RH WIND       PRES   REMARKS
SCOTTSBLUFF    MOSUNNY   91  53  27 E5        29.99S
ALLIANCE       MOSUNNY   91  52  26 E8        29.98F
CHADRON        SUNNY     91  57  31 NE10      29.97S
KIMBALL        CLOUDY    86  46  24 NE10      30.04S
SIDNEY         MOSUNNY   92  46  20 E8        30.02F
$$

NEZ057>060-069>072-079>082-022100-
SOUTHWEST NEBRASKA

CITY           SKY/WX    TMP DP  RH WIND       PRES   REMARKS
NORTH PLATTE   MOSUNNY   95  59  30 W6        29.91F HX  94
IMPERIAL       SUNNY     95  56  26 E8        29.94F HX  93
LEXINGTON      SUNNY     96  61  31 S8        29.90S HX  96
MCCOOK         SUNNY     97  55  24 VRB3      29.91F HX  95
OGALLALA       SUNNY     91  62  36 SE5       29.95F HX  92
$$

NEZ005>010-023>029-035>040-094-022100-
NORTH CENTRAL NEBRASKA

CITY           SKY/WX    TMP DP  RH WIND       PRES   REMARKS
AINSWORTH      SUNNY     87  60  40 NE10G16   29.94R
BROKEN BOW     SUNNY     96  54  24 W3        29.89F HX  94
O`NEILL        SUNNY     89  61  38 NE10      29.90S
ORD            SUNNY     96  69  41 NE5       29.85F HX 102
THEDFORD       MOSUNNY   95  60  31 NE5       29.93S HX  95
$$

NEZ041-046>049-061>064-073>077-083>087-022100-
SOUTH CENTRAL NEBRASKA

CITY           SKY/WX    TMP DP  RH WIND       PRES   REMARKS
GRAND ISLAND   SUNNY     95  68  41 W12       29.88S HX  99
AURORA         SUNNY     90  73  57 SW8       29.88R HX  98
HASTINGS       SUNNY     92  69  47 SW8       29.88F HX  97
HEBRON         SUNNY     92  67  42 SW5       29.87F HX  95
HOLDREGE       SUNNY     93  62  34 S5        29.91S HX  94
KEARNEY *      SUNNY     93  70  46 S14       29.89F HX  99
YORK           SUNNY     90  75  62 W8        29.87S HX 100
$$

NEZ011>018-030>034-042>045-022100-
NORTHEAST NEBRASKA

CITY           SKY/WX    TMP DP  RH WIND       PRES   REMARKS
NORFOLK        SUNNY     91  68  46 N14       29.85R HX  95
ALBION         SUNNY     92  70  48 S5        29.86S HX  97
BLAIR          SUNNY     90  73  57 SW12      29.82S HX  97
COLUMBUS *     SUNNY     91  73  55 SW10      29.83S HX 100
FREMONT        SUNNY     92  73  52 SW10      29.82F HX 101
TEKAMAH        SUNNY     91  77  63 W8        29.80S HX 104
WAYNE          SUNNY     88  69  54 NW9       29.85S HX  92
$$

NEZ050>053-065>068-078-088>093-022100-
SOUTHEAST NEBRASKA

CITY           SKY/WX    TMP DP  RH WIND       PRES   REMARKS
LINCOLN        SUNNY     95  71  45 SW8       29.85S HX 102
OMAHA EPPLEY   MOSUNNY   96  72  45 SW13      29.80F HX 104
BEATRICE       SUNNY     92  70  48 SW13      29.85F HX  97
FALLS CITY     SUNNY     90  74  59 W12       29.85F HX  99
NEBRASKA CITY  SUNNY     89  70  53 SW12      29.84F HX  93
PLATTSMOUTH    SUNNY    N/A N/A N/A SW13      29.84S
$$

NEZ044-045-051>053-067-022100-
OMAHA AREA

CITY           SKY/WX    TMP DP  RH WIND       PRES   REMARKS
OMAHA EPPLEY   MOSUNNY   96  72  45 SW13      29.80F HX 104
BLAIR          SUNNY     90  73  57 SW12      29.82S HX  97
FREMONT        SUNNY     92  73  52 SW10      29.82F HX 101
MILLARD        SUNNY     92  75  57 SW12      29.81F HX 103
OFFUTT AFB     SUNNY     93  73  53 W13       29.81S HX 102
PLATTSMOUTH    SUNNY    N/A N/A N/A SW13      29.84S
WAHOO          FAIR      92  74  55 SW9       29.83S HX 103
$$



USA.gov is the U.S. government's official web portal to all federal, state and local government web resources and services.